COSMOS 249 DEB, 15775

Orbit data source: Space-Track

COSMOS 249 DEB, 15775 is space debris in LEO originally from a launch on Sun, 20 Oct 1968 UTC launched from the Tyuratam Missile And Space Complex (TTMTR). Debris objects in space refer to the collection of defunct objects orbiting the Earth. Examples of debris include non-operational satellites, rocket bodies, and fragments generated from explosions, collisions, or faulty payload assembly.

Loading next visibility...
Identifier
15775, 1968-091DA
Orbit
LEO
Country
Flag of CISCIS
Related business
Manufacturer
Unknown
Mission
Spacecraft
Bus & Motor
Unknown
Mass
Unknown
Launch date (UTC)
1968-10-20 (57 years ago)
Launch vehicle
Unknown
Launch site
Tyuratam Missile And Space Complex (TTMTR)
Object type
Payload
Rocket body
Debris
Shape & HBR
Unknown shape, 1.1 m
Radar Cross Section
Small (<0.1 m²)

Expand to show TLE details & history
Last TLE update: 1 day ago

TLE from 1 day ago
0 COSMOS 249 DEB
1 15775U 68091DA  25287.49859384  .00003034  00000-0  38375-2 0  9991
2 15775  62.3050 327.9655 0658462 274.0411  78.5624 12.98411574535670
Epoch: 2025-10-14T11:57Z
TLE epoch observation values (Epoch: 2025-10-14T11:57:58.507Z)
Latitude
-0.00008°
Longitude
125.18553°
Altitude
1,202.507 km
Speed
7.285 km/s
True Right ascension
21h 51m 51s
True Declination
0° 00' 00"
Sunlit
Object was in full shadow at epoch
Visualization orbit readout
Latitude
Unknown
Longitude
Unknown
Altitude
Unknown
Speed
Unknown
Apparent Right ascension
Unknown
Apparent Declination
Unknown
Sunlit
N/A
Visualization observer readout
Local Sidereal Time
12:43:53
Azimuth
Unknown
Elevation
Unknown
Doppler factor
Unknown
Orbital elements
Apogee altitude
1,770.728 km
Perigee altitude
763.881 km
Semi-major axis
7,645.442 km
Eccentricity
0.06585
Inclination
62.305°
RAAN
327.9655°
Arg. of periapsis
274.0411°
True anomaly
86.05912°
Mean anomaly
78.5624°
Eccentric anomaly
82.3011°
Mean motion
3.24668 °/min
Orbital period
110.88 mins
BSTAR
0.0038375
Loading maneuver chart data...
Computing Atmospheric mass density...

Documentation

Showing up to 5 results
|